This is the latest recevied weather packets stored in our database for station/object N3EDS. If no packets are shown the sender has not sent any weather packets the latest 10 day(s).
| Time | Temp. | Humidity | Pressure | Rain* | Wind** | Luminosity | Snow |
|---|---|---|---|---|---|---|---|
| 1777898036 | 10° C | 66% | 1013.6 hPa | 0 mm | - | 48 W/m² | - |
| 1777897731 | 9.44° C | 67% | 1013.1 hPa | 0 mm | - | 47 W/m² | - |
| 1777897428 | 9.44° C | 68% | 1013.1 hPa | 0 mm | - | 46 W/m² | - |
| 1777897123 | 8.89° C | 69% | 1013.3 hPa | 0 mm | - | 47 W/m² | - |
| 1777896820 | 8.33° C | 70% | 1013.4 hPa | 0 mm | - | 46 W/m² | - |
| 1777896517 | 8.33° C | 70% | 1013.3 hPa | 0 mm | - | 42 W/m² | - |
| 1777896215 | 8.33° C | 74% | 1013.3 hPa | 0 mm | - | 55 W/m² | - |
| 1777895912 | 7.78° C | 73% | 1013.8 hPa | 0 mm | - | 78 W/m² | - |
| 1777895610 | 7.78° C | 73% | 1013.7 hPa | 0 mm | - | 83 W/m² | - |
| 1777895307 | 7.78° C | 71% | 1013.6 hPa | 0 mm | - | 69 W/m² | - |
| 1777895005 | 7.22° C | 71% | 1013.6 hPa | 0 mm | - | 59 W/m² | - |
| 1777894702 | 7.22° C | 70% | 1013.6 hPa | 0 mm | - | 43 W/m² | - |
| 1777894398 | 7.22° C | 73% | 1013.7 hPa | 0 mm | - | 44 W/m² | - |
| 1777894097 | 6.67° C | 73% | 1013.7 hPa | 0 mm | - | 47 W/m² | - |
| 1777893793 | 6.67° C | 73% | 1013.6 hPa | 0 mm | - | 46 W/m² | - |
| 1777893489 | 6.67° C | 81% | 1013.4 hPa | 0 mm | - | 36 W/m² | - |
| 1777893186 | 6.11° C | 72% | 1013.4 hPa | 0 mm | - | 44 W/m² | - |
| 1777892882 | 5.56° C | 76% | 1013.4 hPa | 0 mm | - | 39 W/m² | - |
| 1777892579 | 5.56° C | 79% | 1013.8 hPa | 0 mm | - | 33 W/m² | - |
| 1777892274 | 5° C | 75% | 1013.4 hPa | 0 mm | - | 22 W/m² | - |
| 1777891971 | 5° C | 77% | 1013.6 hPa | 0 mm | - | 18 W/m² | - |
| 1777891670 | 5° C | 75% | 1013.6 hPa | 0 mm | - | 17 W/m² | - |
| 1777891365 | 5° C | 73% | 1013.6 hPa | 0 mm | - | 13 W/m² | - |
| 1777891061 | 5.56° C | 75% | 1013.6 hPa | 0 mm | - | 10 W/m² | - |
| 1777890756 | 5° C | 74% | 1013.4 hPa | 0 mm | - | 8 W/m² | - |
* Rain latest hour (hover to see other rain measurements)
** Current wind speed in m/s (hover to see current wind gust speed)